Precipitable_Water
0.12 0.12 0.15 0.15 0.19 0.26 0.29 0.30 0.27 0.31 0.32 0.38 0.44 0.45 0.50 0.54 0.58 0.61 0.63 0.66 0.71 0.79 0.90 0.98 1.05 1.09 1.18 1.27 1.32 1.35 1.32 1.31 1.33 1.44 1.40 1.38 1.43 1.31 1.41 1.42 1.41 1.47 1.46 1.38
0.09 0.12 0.12 0.12 0.20 0.22 0.30 0.31 0.32 0.34 0.33 0.44 0.47 0.44 0.45 0.49 0.54 0.54 0.55 0.66 0.71 0.79 0.84 0.91 1.01 1.11 1.21 1.26 1.27 1.37 1.26 1.19 1.20 1.16 1.17 1.19 1.12 1.13 1.25 1.34 1.31 1.32 1.40 1.34
0.08 0.12 0.10 0.11 0.18 0.23 0.27 0.31 0.31 0.26 0.33 0.43 0.42 0.44 0.44 0.44 0.47 0.53 0.56 0.59 0.62 0.73 0.82 0.90 0.98 1.06 1.12 1.17 1.26 1.27 1.22 1.23 1.14 1.08 1.07 1.09 1.13 1.22 1.14 1.07 1.21 1.29 1.27 1.37
0.09 0.11 0.05 0.14 0.22 0.28 0.28 0.29 0.32 0.33 0.37 0.40 0.42 0.45 0.45 0.48 0.46 0.47 0.50 0.59 0.63 0.66 0.73 0.83 0.92 1.00 1.11 1.11 1.12 1.14 1.12 1.13 1.13 1.06 1.05 1.11 1.12 1.08 1.02 1.14 1.19 1.22 1.28 1.29
0.09 0.11 0.12 0.14 0.20 0.21 0.22 0.24 0.31 0.32 0.35 0.40 0.43 0.44 0.41 0.46 0.46 0.45 0.45 0.48 0.59 0.61 0.67 0.72 0.76 0.89 0.95 1.00 0.99 0.96 0.99 0.99 1.03 1.10 1.03 1.07 1.02 1.01 1.09 1.20 1.20 1.19 1.22 1.24
0.11 0.09 0.09 0.14 0.19 0.25 0.27 0.19 0.29 0.32 0.32 0.35 0.39 0.31 0.37 0.46 0.45 0.45 0.48 0.48 0.48 0.59 0.57 0.53 0.64 0.70 0.74 0.81 0.86 0.88 0.87 0.94 1.01 0.96 0.96 0.95 1.01 1.06 1.06 1.09 1.09 1.17 1.16 1.20
0.12 0.10 0.13 0.20 0.20 0.24 0.15 0.16 0.26 0.30 0.30 0.32 0.32 0.36 0.43 0.48 0.46 0.47 0.48 0.45 0.46 0.47 0.51 0.52 0.49 0.55 0.59 0.66 0.70 0.83 0.86 0.86 0.85 0.87 0.90 0.92 0.94 0.98 1.01 1.02 1.02 1.01 1.01 1.06
0.11 0.11 0.10 0.21 0.20 0.17 0.20 0.24 0.26 0.28 0.29 0.28 0.34 0.38 0.42 0.45 0.48 0.47 0.47 0.46 0.46 0.44 0.45 0.46 0.47 0.45 0.45 0.47 0.55 0.68 0.79 0.77 0.77 0.77 0.79 0.85 0.86 0.87 0.90 0.90 0.91 0.92 0.93 0.95
0.13 0.11 0.18 0.20 0.20 0.23 0.23 0.22 0.23 0.25 0.27 0.26 0.27 0.33 0.38 0.41 0.43 0.47 0.48 0.48 0.48 0.45 0.45 0.45 0.41 0.41 0.40 0.41 0.43 0.44 0.48 0.60 0.68 0.69 0.70 0.71 0.72 0.76 0.77 0.79 0.79 0.79 0.81 0.82
0.12 0.14 0.15 0.17 0.19 0.18 0.18 0.18 0.20 0.23 0.24 0.24 0.23 0.27 0.29 0.37 0.40 0.39 0.39 0.45 0.44 0.45 0.46 0.48 0.45 0.39 0.38 0.39 0.40 0.40 0.41 0.43 0.47 0.49 0.49 0.51 0.57 0.62 0.65 0.69 0.70 0.71 0.72 0.73
0.12 0.13 0.15 0.16 0.16 0.16 0.16 0.16 0.15 0.16 0.17 0.18 0.21 0.24 0.25 0.27 0.34 0.37 0.35 0.30 0.32 0.35 0.37 0.40 0.41 0.45 0.46 0.42 0.37 0.37 0.37 0.40 0.44 0.43 0.42 0.43 0.43 0.44 0.47 0.53 0.58 0.61 0.68 0.72
0.11 0.16 0.16 0.16 0.17 0.17 0.15 0.16 0.17 0.17 0.16 0.16 0.17 0.18 0.20 0.21 0.24 0.33 0.35 0.33 0.28 0.27 0.29 0.31 0.34 0.36 0.37 0.38 0.40 0.38 0.36 0.35 0.36 0.35 0.37 0.38 0.37 0.39 0.46 0.46 0.45 0.48 0.48 0.55
0.17 0.18 0.18 0.19 0.19 0.19 0.16 0.16 0.17 0.17 0.18 0.18 0.19 0.19 0.19 0.21 0.24 0.26 0.32 0.32 0.29 0.26 0.25 0.27 0.29 0.30 0.33 0.34 0.35 0.35 0.35 0.36 0.37 0.36 0.35 0.34 0.34 0.34 0.34 0.42 0.46 0.46 0.46 0.45
0.15 0.14 0.12 0.13 0.13 0.15 0.15 0.14 0.15 0.16 0.16 0.16 0.16 0.17 0.19 0.20 0.21 0.23 0.24 0.28 0.30 0.28 0.26 0.25 0.25 0.26 0.28 0.30 0.30 0.30 0.31 0.32 0.34 0.35 0.35 0.35 0.34 0.34 0.35 0.33 0.32 0.37 0.46 0.45
0.12 0.13 0.13 0.13 0.13 0.12 0.12 0.12 0.11 0.11 0.11 0.11 0.12 0.14 0.16 0.17 0.19 0.22 0.22 0.22 0.27 0.28 0.26 0.25 0.24 0.23 0.25 0.26 0.27 0.27 0.28 0.28 0.30 0.31 0.34 0.36 0.36 0.36 0.35 0.34 0.37 0.41 0.44 0.43
0.14 0.14 0.14 0.14 0.14 0.14 0.13 0.12 0.12 0.11 0.12 0.13 0.13 0.11 0.12 0.13 0.16 0.19 0.22 0.23 0.20 0.20 0.25 0.27 0.25 0.25 0.26 0.25 0.26 0.27 0.27 0.27 0.26 0.27 0.28 0.30 0.32 0.33 0.33 0.34 0.35 0.34 0.36 0.36
0.15 0.15 0.16 0.15 0.15 0.16 0.16 0.17 0.16 0.15 0.15 0.14 0.14 0.14 0.14 0.12 0.12 0.12 0.14 0.17 0.21 0.22 0.22 0.23 0.25 0.28 0.28 0.26 0.25 0.25 0.26 0.26 0.26 0.26 0.25 0.25 0.26 0.28 0.30 0.31 0.30 0.30 0.32 0.34
0.18 0.18 0.19 0.19 0.19 0.20 0.20 0.21 0.20 0.20 0.19 0.18 0.17 0.17 0.16 0.14 0.13 0.12 0.11 0.13 0.15 0.18 0.20 0.21 0.22 0.25 0.28 0.28 0.26 0.24 0.25 0.26 0.26 0.26 0.25 0.26 0.25 0.26 0.26 0.28 0.29 0.29 0.29 0.30
0.19 0.20 0.21 0.22 0.22 0.23 0.22 0.23 0.24 0.24 0.23 0.22 0.20 0.19 0.19 0.19 0.17 0.16 0.15 0.13 0.13 0.13 0.14 0.16 0.19 0.19 0.22 0.27 0.29 0.27 0.25 0.24 0.25 0.26 0.26 0.26 0.26 0.27 0.27 0.26 0.26 0.27 0.28 0.28
0.20 0.21 0.21 0.21 0.25 0.25 0.24 0.25 0.25 0.24 0.25 0.25 0.23 0.20 0.19 0.20 0.20 0.20 0.19 0.17 0.16 0.15 0.15 0.15 0.15 0.17 0.18 0.21 0.25 0.27 0.26 0.24 0.23 0.24 0.25 0.25 0.26 0.26 0.26 0.27 0.27 0.28 0.29 0.29
0.19 0.20 0.19 0.20 0.23 0.25 0.26 0.26 0.26 0.25 0.26 0.26 0.25 0.23 0.20 0.21 0.22 0.22 0.20 0.18 0.17 0.17 0.16 0.15 0.14 0.16 0.17 0.21 0.25 0.26 0.26 0.26 0.26 0.25 0.26 0.28 0.29 0.28 0.28 0.28 0.28 0.28 0.27 0.26
0.19 0.18 0.19 0.21 0.23 0.24 0.26 0.26 0.26 0.26 0.26 0.26 0.26 0.26 0.24 0.20 0.21 0.22 0.24 0.22 0.20 0.20 0.19 0.18 0.16 0.16 0.17 0.19 0.25 0.28 0.29 0.29 0.29 0.29 0.29 0.30 0.29 0.30 0.29 0.27 0.27 0.28 0.26 0.24
0.18 0.18 0.20 0.22 0.23 0.25 0.26 0.26 0.27 0.27 0.26 0.27 0.26 0.26 0.26 0.24 0.22 0.21 0.20 0.23 0.24 0.22 0.21 0.20 0.18 0.18 0.18 0.19 0.21 0.23 0.24 0.25 0.26 0.27 0.27 0.26 0.26 0.26 0.25 0.24 0.23 0.21 0.18 0.17
0.17 0.19 0.20 0.23 0.25 0.25 0.24 0.25 0.26 0.27 0.27 0.28 0.28 0.29 0.28 0.26 0.24 0.23 0.25 0.24 0.24 0.23 0.21 0.20 0.19 0.18 0.19 0.21 0.19 0.19 0.18 0.18 0.20 0.21 0.21 0.22 0.22 0.22 0.21 0.20 0.19 0.19 0.18 0.18
0.17 0.19 0.22 0.24 0.24 0.24 0.25 0.26 0.26 0.26 0.26 0.27 0.28 0.29 0.29 0.30 0.28 0.26 0.23 0.24 0.24 0.24 0.23 0.22 0.19 0.19 0.21 0.20 0.19 0.19 0.19 0.18 0.19 0.19 0.19 0.19 0.19 0.19 0.19 0.19 0.19 0.18 0.18 0.19
0.18 0.20 0.22 0.24 0.24 0.25 0.25 0.26 0.25 0.26 0.26 0.25 0.27 0.28 0.29 0.31 0.31 0.30 0.28 0.25 0.24 0.24 0.24 0.24 0.22 0.21 0.21 0.21 0.20 0.20 0.20 0.19 0.19 0.19 0.19 0.19 0.18 0.19 0.19 0.19 0.19 0.19 0.20 0.21
0.20 0.22 0.23 0.24 0.25 0.26 0.26 0.26 0.25 0.25 0.28 0.28 0.27 0.29 0.29 0.30 0.31 0.31 0.30 0.30 0.27 0.25 0.24 0.23 0.22 0.22 0.22 0.21 0.21 0.21 0.21 0.20 0.19 0.19 0.20 0.21 0.20 0.21 0.22 0.22 0.22 0.22 0.22 0.22
Wind_Speed
14 18 14 14 12 9 6 11 13 10 11 12 14 13 15 17 17 17 17 18 18 20 21 26 29 32 34 35 35 35 34 33 34 35 35 35 38 33 38 39 41 45 46 44
16 15 15 14 8 9 6 5 10 7 8 10 13 15 13 13 15 16 17 17 17 18 20 22 25 30 31 32 32 34 33 32 31 30 31 33 34 36 35 38 40 43 39 45
14 15 16 10 9 7 6 3 6 8 8 7 11 14 14 14 14 16 16 17 18 18 18 20 22 23 26 27 27 28 29 30 29 28 28 28 29 29 29 31 30 31 32 35
15 13 9 11 7 5 5 0 4 5 8 8 11 14 14 14 15 16 17 17 17 18 18 19 19 21 22 24 24 25 25 25 26 28 27 27 27 26 24 24 25 26 27 27
11 10 14 11 9 12 11 9 5 7 8 9 10 15 16 14 15 15 17 18 19 18 19 19 19 19 20 22 22 22 22 23 23 23 23 24 25 25 27 26 27 25 26 26
15 12 10 10 14 16 16 14 8 6 6 6 10 14 16 17 16 16 16 16 18 19 19 19 20 19 20 21 21 21 21 21 22 23 22 22 23 22 23 23 23 23 23 27
15 14 11 13 14 14 13 16 13 9 7 7 8 10 16 17 17 17 18 17 17 18 19 19 19 20 19 19 20 22 21 20 19 20 22 21 21 21 21 21 22 23 23 24
10 9 11 12 9 8 14 15 16 14 12 10 9 10 11 15 17 18 18 18 18 18 18 18 18 19 19 19 18 19 20 19 17 17 18 19 20 20 20 20 20 20 20 21
12 14 15 16 15 14 15 17 17 16 16 15 13 12 12 14 16 16 19 20 22 20 19 18 17 18 18 19 19 19 18 18 18 17 16 16 16 17 18 18 18 19 19 20
16 12 15 17 15 16 17 17 18 20 19 18 17 15 15 17 18 18 20 23 23 23 23 22 22 19 19 18 19 19 20 20 19 19 18 17 17 17 17 17 18 18 19 19
15 16 18 15 20 20 21 21 21 21 22 22 22 21 19 19 20 21 21 21 23 24 26 27 26 26 25 22 21 22 22 22 22 22 21 20 20 19 19 19 18 18 18 19
10 15 15 18 18 19 20 20 21 21 23 23 24 25 25 23 23 24 25 24 25 25 24 23 25 27 26 25 26 26 25 25 25 25 24 24 23 22 22 21 20 20 20 21
8 12 11 13 16 17 18 20 21 22 23 23 23 23 25 26 26 27 28 29 27 27 28 29 28 27 28 28 28 28 28 29 28 28 28 27 27 26 26 26 25 24 24 23
12 13 13 14 15 18 19 22 24 25 26 27 27 27 27 28 27 28 30 31 32 31 31 31 32 32 31 31 30 30 30 31 32 32 32 31 31 30 30 30 30 29 28 28
16 17 18 20 21 22 23 24 26 27 28 30 31 31 31 31 32 32 31 31 34 35 34 34 34 34 33 33 33 33 32 32 32 33 34 34 33 33 32 32 32 32 32 32
20 22 22 23 24 26 28 29 31 32 33 34 35 36 37 37 37 37 37 36 36 37 39 39 39 38 37 37 37 37 37 36 35 35 36 36 37 37 37 36 37 37 37 37
25 27 26 27 29 28 29 30 31 33 36 38 39 41 42 43 43 42 42 42 42 42 42 43 44 43 43 42 41 40 41 42 41 40 39 38 38 39 39 39 39 39 40 40
27 27 28 30 30 30 30 29 30 30 33 36 40 43 44 46 48 47 47 45 45 47 47 47 47 47 47 47 46 45 45 44 43 44 43 42 41 41 41 42 42 42 43 44
29 30 31 31 32 32 32 29 28 28 29 30 33 37 42 45 48 49 51 51 50 50 50 49 49 49 52 51 50 50 49 48 48 48 47 47 46 46 46 45 46 47 47 47
31 31 32 33 31 32 30 29 29 28 27 27 28 30 33 38 43 47 48 50 52 52 53 53 52 51 51 53 54 54 53 53 51 51 51 50 50 49 49 49 48 48 48 48
32 34 35 34 31 31 29 28 28 28 27 27 27 27 28 31 34 38 44 47 49 50 51 52 53 53 51 51 53 54 54 52 51 51 50 50 49 49 49 48 48 49 49 50
34 35 36 34 32 31 29 29 28 28 27 27 26 25 26 26 28 31 36 42 43 44 46 47 48 48 48 48 49 50 51 53 53 53 53 54 53 53 52 52 52 52 51 51
36 36 36 35 32 31 30 29 28 28 27 27 26 25 24 23 22 23 25 29 34 38 40 42 43 44 43 42 42 44 46 49 52 53 52 52 53 55 56 54 54 54 53 52
37 37 36 33 31 30 30 30 29 29 28 28 27 26 24 22 21 20 21 23 25 28 32 34 37 39 40 39 39 39 40 42 44 47 50 51 51 51 52 53 54 54 54 54
37 37 34 31 31 30 31 31 30 29 28 28 27 25 23 22 20 18 17 16 18 21 24 27 30 33 34 35 36 36 37 37 39 41 43 45 47 48 49 51 52 53 54 55
35 33 31 31 31 30 30 29 28 29 29 28 25 23 21 20 19 18 16 15 14 14 16 19 22 26 29 32 34 35 35 36 37 38 40 42 44 45 47 49 50 52 54 55
32 31 30 30 29 30 30 30 30 29 27 24 21 20 19 17 17 17 17 16 16 16 16 17 19 22 24 27 29 30 32 33 35 36 37 38 40 42 44 46 47 49 51 52
Wind_Direction
284 287 280 282 290 270 249 218 214 224 232 235 232 217 214 215 213 212 212 212 213 216 220 219 218 217 215 217 219 218 221 224 226 227 231 237 235 248 238 237 239 242 239 240
297 284 280 281 279 270 227 233 213 195 209 236 229 221 218 218 215 215 215 213 212 217 222 222 221 218 216 217 220 219 220 223 225 230 236 240 243 245 247 242 243 242 239 239
286 292 285 239 277 266 203 231 232 217 224 239 225 221 220 225 220 219 218 218 217 220 221 223 220 219 221 219 219 219 223 226 228 234 237 242 242 243 246 241 240 235 237 229
281 281 258 234 249 235 189 304 266 283 240 236 226 224 218 224 226 227 224 222 220 219 221 222 220 220 219 221 220 223 228 229 232 238 240 241 239 236 234 233 231 228 236 230
270 261 257 248 252 246 250 232 285 271 301 233 230 221 222 229 226 226 226 225 223 221 219 219 221 221 221 224 227 229 231 232 232 234 237 237 236 234 236 236 235 237 232 229
274 259 248 264 271 265 243 220 282 283 313 289 248 218 222 236 233 228 228 227 226 222 221 222 225 225 225 224 225 226 227 231 234 237 240 233 231 231 233 233 234 234 233 234
266 248 239 277 276 263 226 239 262 261 263 283 256 234 233 233 235 232 229 230 229 224 224 225 226 224 225 225 228 230 230 233 236 234 230 231 232 231 231 233 234 234 235 234
278 260 238 298 270 243 242 253 251 253 263 261 254 253 240 230 232 234 235 234 233 231 228 229 227 228 228 228 228 227 227 227 227 227 227 228 229 230 231 231 231 231 231 231
262 266 275 265 262 255 255 253 253 252 253 260 253 248 248 240 235 231 235 235 232 232 230 228 229 227 228 229 225 225 226 225 226 223 223 223 224 227 227 229 229 230 229 230
271 263 278 271 266 266 261 260 260 253 255 256 253 250 245 244 241 240 236 234 232 230 232 233 230 230 228 227 227 228 228 228 227 226 226 227 228 229 229 230 231 232 232 232
275 269 281 265 277 269 268 267 263 262 259 260 255 250 250 249 243 246 245 238 233 235 237 236 234 231 233 233 232 231 232 232 231 231 232 233 233 235 235 234 234 235 236 236
296 290 277 276 278 277 271 268 267 265 262 263 260 256 251 251 248 244 243 242 241 238 236 235 236 236 235 236 236 234 234 235 235 235 235 236 236 238 239 240 240 241 242 242
330 321 305 291 283 282 276 273 269 267 265 263 261 259 257 251 248 246 242 241 242 244 243 240 240 240 239 238 239 238 238 238 237 237 238 239 240 242 243 244 246 247 247 247
339 329 317 314 303 296 287 279 273 270 267 263 261 260 258 255 251 249 247 244 243 245 246 246 243 243 243 243 242 242 243 241 241 241 241 242 243 244 245 247 249 249 247 248
336 329 316 308 303 298 293 288 281 274 270 266 263 260 259 256 253 250 249 249 247 245 245 246 246 246 246 245 245 244 243 244 245 244 244 244 244 244 246 249 249 248 248 250
331 327 322 317 311 304 296 289 283 277 273 268 264 261 259 257 255 253 251 249 248 247 247 247 247 247 248 248 247 247 246 247 247 247 246 246 246 248 249 250 250 251 251 252
330 327 324 318 316 310 303 296 290 282 276 271 267 263 260 258 255 254 252 250 248 248 248 248 248 248 248 248 249 250 250 250 249 248 248 248 248 248 249 251 252 252 252 255
327 324 322 319 319 316 314 307 301 292 284 279 273 267 262 258 255 254 253 252 251 249 248 249 249 249 249 248 249 250 250 250 249 249 249 250 250 251 252 252 253 253 256 258
325 324 323 321 319 316 314 311 308 303 298 292 283 272 265 260 257 255 253 251 251 250 250 250 250 251 250 249 250 250 250 251 250 250 250 251 252 252 254 254 255 256 258 260
326 325 324 323 320 319 314 312 310 308 306 302 296 286 276 268 260 256 254 253 251 250 250 250 252 251 252 251 251 251 251 251 251 251 251 252 253 253 255 256 257 257 258 260
325 326 325 325 323 322 318 315 312 309 307 306 303 300 291 279 269 260 254 252 251 251 251 251 250 251 251 251 250 249 249 249 250 250 250 251 252 252 253 255 255 256 258 261
325 325 325 324 322 321 320 318 315 312 311 309 305 304 304 294 280 270 261 254 252 250 250 249 248 248 249 251 250 247 248 248 249 249 250 252 252 252 253 255 256 256 259 261
324 324 323 322 321 319 319 318 316 314 310 309 307 305 304 305 296 284 273 261 252 250 249 249 247 246 246 247 247 248 249 249 249 250 251 252 254 254 254 255 255 256 258 260
323 323 323 321 320 319 319 319 318 315 312 309 306 303 302 303 302 294 284 270 260 253 250 247 245 243 243 244 247 249 251 252 252 251 251 252 252 252 253 254 256 257 258 259
322 322 322 322 321 320 319 319 318 316 315 313 307 302 298 295 296 299 293 284 268 259 254 249 244 242 242 243 247 250 253 254 254 254 253 253 253 253 254 254 255 257 258 260
322 322 322 322 321 321 321 321 319 319 318 315 310 306 299 293 290 289 290 284 277 268 258 250 245 243 244 247 250 252 254 255 256 256 256 255 255 255 256 257 258 260 261 261
323 323 324 324 325 324 323 321 320 320 321 319 316 315 307 300 290 286 282 279 275 269 264 259 255 253 252 253 254 255 256 258 258 258 257 258 259 259 259 260 261 262 263 264